TimeCST,TemperatureF,Dew PointF,Humidity,Sea Level PressureIn,VisibilityMPH,Wind Direction,Wind SpeedMPH,Gust SpeedMPH,PrecipitationIn,Events,Conditions,WindDirDegrees,DateUTC
12:53 AM,18.0,12.9,81,30.15,9.0,North,16.1,-,N/A,,Mostly Cloudy,10,2012-11-29 06:53:00
1:03 AM,17.6,12.2,79,30.11,9.0,North,16.1,-,N/A,,Scattered Clouds,360,2012-11-29 07:03:00
1:10 AM,17.6,12.2,79,30.11,9.0,North,17.3,-,N/A,,Mostly Cloudy,10,2012-11-29 07:10:00
1:17 AM,17.6,12.2,79,30.11,9.0,North,16.1,-,N/A,,Scattered Clouds,360,2012-11-29 07:17:00
1:21 AM,17.6,12.2,79,30.11,9.0,North,15.0,-,N/A,,Mostly Cloudy,360,2012-11-29 07:21:00
1:34 AM,17.6,14.0,86,30.12,8.0,North,17.3,-,N/A,,Mostly Cloudy,360,2012-11-29 07:34:00
1:53 AM,19.0,14.0,81,30.17,8.0,North,15.0,-,N/A,,Overcast,360,2012-11-29 07:53:00
2:53 AM,19.0,14.0,81,30.19,9.0,North,18.4,-,N/A,,Overcast,360,2012-11-29 08:53:00
3:53 AM,17.1,12.0,81,30.18,10.0,NNE,13.8,-,N/A,,Overcast,20,2012-11-29 09:53:00
4:53 AM,17.1,12.0,81,30.17,10.0,North,12.7,-,N/A,,Overcast,10,2012-11-29 10:53:00
5:53 AM,18.0,12.9,81,30.17,10.0,North,12.7,20.7,N/A,,Overcast,10,2012-11-29 11:53:00
6:53 AM,16.0,10.9,81,30.19,10.0,North,13.8,-,N/A,,Overcast,360,2012-11-29 12:53:00
7:53 AM,15.1,9.0,77,30.19,10.0,NNE,12.7,-,N/A,,Overcast,20,2012-11-29 13:53:00
8:53 AM,16.0,10.0,77,30.22,10.0,NNE,12.7,-,N/A,,Overcast,20,2012-11-29 14:53:00
9:37 AM,17.6,10.4,73,30.18,10.0,NNE,15.0,-,N/A,,Overcast,20,2012-11-29 15:37:00
9:53 AM,17.6,10.4,73,30.18,10.0,NNE,12.7,21.9,N/A,,Overcast,30,2012-11-29 15:53:00
10:53 AM,19.0,12.0,74,30.24,10.0,NE,11.5,-,N/A,,Overcast,40,2012-11-29 16:53:00
11:53 AM,21.9,15.1,75,30.21,10.0,NE,11.5,-,N/A,,Overcast,50,2012-11-29 17:53:00
12:53 PM,23.0,16.0,74,30.19,10.0,NNE,11.5,-,N/A,,Overcast,30,2012-11-29 18:53:00
1:53 PM,23.0,16.0,74,30.18,10.0,NNE,11.5,-,N/A,,Overcast,30,2012-11-29 19:53:00
2:53 PM,24.1,16.0,71,30.17,10.0,NNE,13.8,-,N/A,,Overcast,30,2012-11-29 20:53:00
3:53 PM,23.0,15.1,72,30.17,10.0,NNE,15.0,-,N/A,,Overcast,30,2012-11-29 21:53:00
4:28 PM,24.8,15.8,69,30.11,10.0,NE,11.5,-,N/A,,Overcast,40,2012-11-29 22:28:00
4:53 PM,23.0,15.1,72,30.16,10.0,NE,10.4,-,N/A,,Overcast,40,2012-11-29 22:53:00
5:37 PM,23.0,15.8,74,30.12,10.0,NNE,9.2,-,N/A,,Scattered Clouds,20,2012-11-29 23:37:00
5:53 PM,23.0,15.1,72,30.17,10.0,NNE,11.5,-,N/A,,Clear,30,2012-11-29 23:53:00
6:35 PM,23.0,15.8,74,30.13,10.0,NNE,11.5,-,N/A,,Mostly Cloudy,30,2012-11-30 00:35:00
6:53 PM,23.0,15.1,72,30.18,10.0,NNE,11.5,-,N/A,,Overcast,30,2012-11-30 00:53:00
7:53 PM,23.0,16.0,74,30.18,10.0,NNE,9.2,-,N/A,,Overcast,30,2012-11-30 01:53:00
8:42 PM,24.8,17.6,74,30.14,10.0,ENE,5.8,-,N/A,,Mostly Cloudy,60,2012-11-30 02:42:00
8:53 PM,24.1,18.0,77,30.20,10.0,ENE,3.5,-,N/A,,Mostly Cloudy,60,2012-11-30 02:53:00
9:14 PM,24.8,17.6,74,30.15,10.0,NNE,3.5,-,N/A,,Overcast,30,2012-11-30 03:14:00
9:53 PM,24.1,18.0,77,30.20,10.0,NNE,6.9,-,N/A,,Overcast,30,2012-11-30 03:53:00
10:53 PM,25.0,19.0,78,30.18,10.0,NE,3.5,-,N/A,,Overcast,50,2012-11-30 04:53:00
11:02 PM,24.8,19.4,80,30.14,10.0,NE,4.6,-,N/A,,Overcast,40,2012-11-30 05:02:00
11:53 PM,27.0,21.0,78,30.19,10.0,East,4.6,-,N/A,,Overcast,80,2012-11-30 05:53:00